| time (UTC) | temp C | wind direction | speed KPH | gust KPH | rain 1hr cm | rain 24hr cm | rain mn cm | humidity % | barometer mb |
| 20260905081922 | 24 | 262 | 0.0 | 0.0 | 0.00 | 0.00 | 0.00 | 96 | 1014.2 |
| 20260905081417 | 24 | 262 | 1.6 | 1.6 | 0.00 | 0.00 | 0.00 | 95 | 1014.2 |
| 20260905080915 | 24 | 262 | 1.6 | 1.6 | 0.00 | 0.00 | 0.00 | 95 | 1014.3 |
| 20260905080410 | 24 | 262 | 1.6 | 1.6 | 0.00 | 0.00 | 0.00 | 95 | 1014.4 |
| 20260905075909 | 24 | 262 | 1.6 | 3.2 | 0.00 | 0.00 | 0.00 | 96 | 1014.3 |
| 20260905075409 | 24 | 262 | 1.6 | 1.6 | 0.00 | 0.00 | 0.00 | 96 | 1014.2 |
| 20260905074908 | 24 | 262 | 0.0 | 0.0 | 0.00 | 0.00 | 0.00 | 97 | 1014.5 |
| 20260905074358 | 24 | 262 | 0.0 | 0.0 | 0.00 | 0.00 | 0.00 | 97 | 1014.3 |
| 20260905073854 | 24 | 262 | 0.0 | 0.0 | 0.00 | 0.00 | 0.00 | 96 | 1014.3 |
| 20260905073349 | 24 | 262 | 0.0 | 0.0 | 0.00 | 0.00 | 0.00 | 96 | 1014.5 |
| 20260905072844 | 24 | 262 | 1.6 | 1.6 | 0.00 | 0.00 | 0.00 | 96 | 1014.4 |
| 20260905072338 | 24 | 262 | 0.0 | 0.0 | 0.00 | 0.00 | 0.00 | 97 | 1014.2 |
| 20260905071835 | 24 | 262 | 0.0 | 0.0 | 0.00 | 0.00 | 0.00 | 97 | 1014.2 |
| 20260905071332 | 24 | 262 | 0.0 | 0.0 | 0.00 | 0.00 | 0.00 | 97 | 1014.4 |
| 20260905070831 | 24 | 262 | 0.0 | 0.0 | 0.00 | 0.00 | 0.00 | 96 | 1014.3 |
| 20260905070328 | 24 | 262 | 0.0 | 0.0 | 0.00 | 0.00 | 0.00 | 96 | 1014.2 |
| 20260905065826 | 25 | 262 | 0.0 | 0.0 | 0.00 | 0.00 | 0.00 | 96 | 1014.2 |
| 20260905065325 | 25 | 262 | 0.0 | 0.0 | 0.00 | 0.00 | 0.00 | 96 | 1014.3 |
| 20260905064820 | 25 | 262 | 0.0 | 0.0 | 0.00 | 0.00 | 0.00 | 96 | 1014.4 |
| 20260905064317 | 25 | 262 | 0.0 | 0.0 | 0.00 | 0.00 | 0.00 | 96 | 1014.2 |
| 20260905063815 | 25 | 262 | 1.6 | 1.6 | 0.00 | 0.00 | 0.00 | 96 | 1014.2 |
| 20260905063311 | 24 | 262 | 0.0 | 0.0 | 0.00 | 0.00 | 0.00 | 97 | 1014.3 |
| 20260905062807 | 24 | 262 | 0.0 | 0.0 | 0.00 | 0.00 | 0.00 | 97 | 1014.4 |
| 20260905062307 | 24 | 262 | 0.0 | 0.0 | 0.00 | 0.00 | 0.00 | 97 | 1014.2 |
| 20260905061801 | 24 | 262 | 0.0 | 0.0 | 0.00 | 0.00 | 0.00 | 97 | 1014.4 |
| 20260905061255 | 24 | 262 | 0.0 | 0.0 | 0.00 | 0.00 | 0.00 | 97 | 1014.3 |
| 20260905060750 | 24 | 262 | 0.0 | 0.0 | 0.00 | 0.00 | 0.00 | 96 | 1014.4 |
| 20260905060248 | 24 | 262 | 0.0 | 0.0 | 0.00 | 0.00 | 0.00 | 96 | 1014.2 |
| 20260905055746 | 25 | 262 | 0.0 | 0.0 | 0.00 | 0.00 | 0.00 | 96 | 1014.2 |
| 20260905055241 | 25 | 262 | 0.0 | 0.0 | 0.00 | 0.00 | 0.00 | 96 | 1014.2 |
| 20260905054736 | 25 | 262 | 0.0 | 0.0 | 0.00 | 0.00 | 0.00 | 95 | 1014.2 |
| 20260905054233 | 25 | 262 | 0.0 | 0.0 | 0.00 | 0.00 | 0.00 | 95 | 1014.1 |
| 20260905053731 | 25 | 262 | 0.0 | 0.0 | 0.00 | 0.00 | 0.00 | 94 | 1014.1 |
| 20260905053227 | 25 | 262 | 0.0 | 0.0 | 0.00 | 0.00 | 0.00 | 94 | 1014.2 |
| 20260905052726 | 25 | 262 | 0.0 | 0.0 | 0.00 | 0.00 | 0.00 | 93 | 1014.1 |
| 20260905052222 | 25 | 262 | 1.6 | 1.6 | 0.00 | 0.00 | 0.00 | 93 | 1014.1 |
| 20260905051721 | 25 | 262 | 1.6 | 1.6 | 0.00 | 0.00 | 0.00 | 94 | 1014.0 |
| 20260905051218 | 25 | 262 | 0.0 | 0.0 | 0.00 | 0.00 | 0.00 | 94 | 1014.1 |
| 20260905050714 | 25 | 262 | 0.0 | 0.0 | 0.00 | 0.00 | 0.00 | 94 | 1014.2 |
| 20260905050211 | 25 | 262 | 0.0 | 0.0 | 0.00 | 0.00 | 0.00 | 94 | 1014.0 |
| 20260905045710 | 25 | 262 | 0.0 | 0.0 | 0.00 | 0.08 | 0.08 | 94 | 1014.1 |
| 20260905045206 | 25 | 262 | 0.0 | 0.0 | 0.00 | 0.08 | 0.08 | 94 | 1013.9 |
| 20260905044700 | 25 | 262 | 0.0 | 0.0 | 0.00 | 0.08 | 0.08 | 93 | 1013.7 |
| 20260905044155 | 26 | 262 | 0.0 | 0.0 | 0.00 | 0.08 | 0.08 | 93 | 1014.0 |
| 20260905043654 | 26 | 262 | 0.0 | 0.0 | 0.00 | 0.08 | 0.08 | 92 | 1013.9 |
| 20260905043149 | 26 | 262 | 0.0 | 0.0 | 0.00 | 0.08 | 0.08 | 91 | 1013.7 |
| 20260905042649 | 26 | 257 | 1.6 | 3.2 | 0.00 | 0.08 | 0.08 | 91 | 1013.9 |
| 20260905042148 | 26 | 263 | 0.0 | 0.0 | 0.00 | 0.08 | 0.08 | 91 | 1013.6 |
| 20260905041644 | 26 | 263 | 0.0 | 1.6 | 0.00 | 0.08 | 0.08 | 91 | 1013.5 |
| 20260905041139 | 26 | 263 | 1.6 | 1.6 | 0.00 | 0.08 | 0.08 | 91 | 1014.0 |
| 20260905040634 | 26 | 263 | 0.0 | 1.6 | 0.00 | 0.08 | 0.08 | 91 | 1013.9 |
| 20260905040127 | 26 | 263 | 1.6 | 1.6 | 0.00 | 0.08 | 0.08 | 91 | 1013.6 |
| 20260905035622 | 26 | 260 | 1.6 | 3.2 | 0.00 | 0.08 | 0.08 | 91 | 1013.7 |
| 20260905035119 | 26 | 244 | 1.6 | 3.2 | 0.00 | 0.08 | 0.08 | 91 | 1013.7 |
| 20260905034614 | 27 | 268 | 0.0 | 1.6 | 0.00 | 0.08 | 0.08 | 91 | 1013.9 |
| 20260905034108 | 27 | 257 | 1.6 | 3.2 | 0.00 | 0.08 | 0.08 | 91 | 1013.9 |
| 20260905033608 | 27 | 275 | 1.6 | 3.2 | 0.00 | 0.08 | 0.08 | 91 | 1013.7 |
| 20260905033104 | 27 | 267 | 1.6 | 1.6 | 0.00 | 0.08 | 0.08 | 90 | 1013.7 |
| 20260905032603 | 27 | 269 | 0.0 | 1.6 | 0.00 | 0.08 | 0.08 | 90 | 1013.6 |
| 20260905032058 | 27 | 277 | 0.0 | 1.6 | 0.00 | 0.08 | 0.08 | 90 | 1013.9 |
| 20260905031554 | 27 | 272 | 0.0 | 1.6 | 0.00 | 0.08 | 0.08 | 89 | 1013.7 |
| 20260905031054 | 27 | 253 | 1.6 | 3.2 | 0.00 | 0.08 | 0.08 | 89 | 1013.9 |
| 20260905030549 | 27 | 230 | 3.2 | 3.2 | 0.00 | 0.08 | 0.08 | 88 | 1013.7 |
| 20260905030043 | 27 | 212 | 3.2 | 3.2 | 0.00 | 0.08 | 0.08 | 88 | 1013.9 |
| 20260905025538 | 27 | 226 | 3.2 | 3.2 | 0.00 | 0.08 | 0.08 | 88 | 1013.7 |
| 20260905025035 | 27 | 276 | 0.0 | 1.6 | 0.00 | 0.08 | 0.08 | 88 | 1013.7 |
| 20260905024530 | 27 | 284 | 0.0 | 1.6 | 0.00 | 0.08 | 0.08 | 88 | 1013.5 |
| 20260905024026 | 27 | 274 | 1.6 | 3.2 | 0.00 | 0.08 | 0.08 | 88 | 1013.7 |
| 20260905023521 | 27 | 252 | 1.6 | 3.2 | 0.00 | 0.08 | 0.08 | 87 | 1013.7 |
| 20260905023021 | 27 | 267 | 1.6 | 3.2 | 0.00 | 0.08 | 0.08 | 87 | 1013.5 |
| 20260905022515 | 28 | 269 | 0.0 | 1.6 | 0.00 | 0.08 | 0.08 | 86 | 1013.7 |
| 20260905022010 | 28 | 269 | 0.0 | 1.6 | 0.00 | 0.08 | 0.08 | 85 | 1013.5 |
| 20260905021510 | 28 | 270 | 0.0 | 1.6 | 0.00 | 0.08 | 0.08 | 84 | 1013.6 |
| 20260905021005 | 28 | 269 | 0.0 | 1.6 | 0.00 | 0.08 | 0.08 | 84 | 1013.4 |
| 20260905020459 | 28 | 269 | 0.0 | 1.6 | 0.00 | 0.08 | 0.08 | 85 | 1013.6 |
| 20260905015954 | 28 | 271 | 1.6 | 1.6 | 0.00 | 0.08 | 0.08 | 85 | 1013.3 |
| 20260905015452 | 28 | 272 | 0.0 | 0.0 | 0.00 | 0.08 | 0.08 | 85 | 1013.5 |
| 20260905014952 | 28 | 272 | 0.0 | 0.0 | 0.00 | 0.08 | 0.08 | 85 | 1013.3 |
| 20260905014447 | 28 | 272 | 0.0 | 0.0 | 0.00 | 0.08 | 0.08 | 85 | 1013.2 |
| 20260905013942 | 28 | 272 | 0.0 | 0.0 | 0.00 | 0.08 | 0.08 | 85 | 1013.2 |
| 20260905013439 | 28 | 272 | 0.0 | 0.0 | 0.00 | 0.08 | 0.08 | 86 | 1013.0 |
| 20260905012933 | 28 | 272 | 0.0 | 0.0 | 0.00 | 0.08 | 0.08 | 85 | 1013.0 |
| 20260905012428 | 28 | 272 | 0.0 | 0.0 | 0.00 | 0.08 | 0.08 | 84 | 1012.9 |
| 20260905011925 | 28 | 272 | 0.0 | 0.0 | 0.00 | 0.08 | 0.08 | 84 | 1012.8 |
| 20260905011421 | 28 | 272 | 0.0 | 0.0 | 0.00 | 0.08 | 0.08 | 83 | 1012.8 |
| 20260905010916 | 28 | 272 | 0.0 | 0.0 | 0.00 | 0.08 | 0.08 | 83 | 1012.7 |
| 20260905010410 | 28 | 272 | 0.0 | 0.0 | 0.00 | 0.08 | 0.08 | 83 | 1012.7 |
| 20260905005901 | 28 | 272 | 0.0 | 0.0 | 0.00 | 0.08 | 0.08 | 83 | 1012.8 |
| 20260905005357 | 29 | 272 | 0.0 | 0.0 | 0.00 | 0.08 | 0.08 | 85 | 1012.6 |
| 20260905004851 | 29 | 272 | 0.0 | 0.0 | 0.00 | 0.08 | 0.08 | 85 | 1012.6 |
| 20260905004346 | 29 | 272 | 0.0 | 0.0 | 0.00 | 0.08 | 0.08 | 84 | 1012.8 |
| 20260905003841 | 30 | 272 | 0.0 | 0.0 | 0.00 | 0.08 | 0.08 | 84 | 1012.6 |
| 20260905003337 | 30 | 272 | 0.0 | 0.0 | 0.00 | 0.08 | 0.08 | 84 | 1012.6 |
| 20260905002833 | 30 | 272 | 0.0 | 0.0 | 0.00 | 0.08 | 0.08 | 84 | 1012.8 |
| 20260905002332 | 30 | 272 | 0.0 | 0.0 | 0.00 | 0.08 | 0.08 | 84 | 1012.9 |
| 20260905001827 | 30 | 272 | 0.0 | 0.0 | 0.00 | 0.08 | 0.08 | 83 | 1012.7 |
| 20260905001326 | 30 | 275 | 1.6 | 1.6 | 0.00 | 0.08 | 0.08 | 83 | 1012.6 |
| 20260905000822 | 31 | 277 | 0.0 | 0.0 | 0.00 | 0.08 | 0.08 | 83 | 1012.8 |
| 20260905000318 | 31 | 277 | 0.0 | 0.0 | 0.00 | 0.08 | 0.08 | 82 | 1012.8 |
| 20260904235812 | 31 | 277 | 0.0 | 0.0 | 0.00 | 0.08 | 0.08 | 81 | 1012.7 |
| 20260904235308 | 31 | 277 | 0.0 | 0.0 | 0.00 | 0.08 | 0.08 | 81 | 1012.7 |
| 20260904234803 | 31 | 277 | 0.0 | 0.0 | 0.00 | 0.08 | 0.08 | 80 | 1012.7 |
| 20260904234258 | 32 | 277 | 0.0 | 0.0 | 0.00 | 0.08 | 0.08 | 79 | 1012.6 |
| 20260904233754 | 32 | 277 | 0.0 | 0.0 | 0.00 | 0.08 | 0.08 | 79 | 1012.6 |
| 20260904233250 | 32 | 240 | 3.2 | 3.2 | 0.00 | 0.08 | 0.08 | 78 | 1012.6 |
| 20260904232746 | 32 | 260 | 1.6 | 3.2 | 0.00 | 0.08 | 0.08 | 76 | 1012.7 |
| 20260904232242 | 32 | 270 | 1.6 | 3.2 | 0.00 | 0.08 | 0.08 | 76 | 1012.5 |
| 20260904231737 | 32 | 257 | 3.2 | 3.2 | 0.00 | 0.08 | 0.08 | 75 | 1012.5 |
| 20260904231233 | 32 | 274 | 1.6 | 1.6 | 0.00 | 0.08 | 0.08 | 73 | 1012.5 |
| 20260904230732 | 33 | 276 | 0.0 | 0.0 | 0.00 | 0.08 | 0.08 | 78 | 1012.5 |
| 20260904230226 | 32 | 276 | 0.0 | 1.6 | 0.00 | 0.08 | 0.08 | 77 | 1012.5 |
| 20260904225726 | 32 | 272 | 0.0 | 3.2 | 0.00 | 0.08 | 0.08 | 72 | 1012.5 |
| 20260904225220 | 32 | 282 | 1.6 | 1.6 | 0.00 | 0.08 | 0.08 | 77 | 1012.4 |
| 20260904224719 | 32 | 247 | 1.6 | 3.2 | 0.00 | 0.08 | 0.08 | 76 | 1012.4 |
| 20260904224214 | 32 | 276 | 1.6 | 1.6 | 0.00 | 0.08 | 0.08 | 80 | 1012.5 |
| 20260904223713 | 32 | 270 | 3.2 | 3.2 | 0.00 | 0.08 | 0.08 | 79 | 1012.4 |
| 20260904223209 | 31 | 269 | 1.6 | 1.6 | 0.00 | 0.08 | 0.08 | 80 | 1012.5 |
| 20260904222704 | 30 | 303 | 0.0 | 0.0 | 0.00 | 0.08 | 0.08 | 88 | 1012.2 |
| 20260904222200 | 30 | 303 | 0.0 | 0.0 | 0.00 | 0.08 | 0.08 | 91 | 1012.3 |
| 20260904221659 | 30 | 303 | 0.0 | 0.0 | 0.00 | 0.08 | 0.08 | 90 | 1012.4 |
| 20260904221154 | 30 | 303 | 0.0 | 0.0 | 0.30 | 0.08 | 0.08 | 85 | 1012.4 |
| 20260904220649 | 31 | 303 | 0.0 | 1.6 | 0.43 | 0.08 | 0.08 | 84 | 1012.4 |
| 20260904220144 | 31 | 280 | 0.0 | 1.6 | 0.13 | 0.03 | 0.03 | 79 | 1012.3 |
| 20260904215638 | 31 | 260 | 1.6 | 3.2 | 0.00 | 0.00 | 0.00 | 73 | 1012.3 |
| 20260904215135 | 32 | 221 | 4.8 | 8.0 | 0.00 | 0.00 | 0.00 | 73 | 1012.4 |
| 20260904214635 | 32 | 225 | 4.8 | 8.0 | 0.00 | 0.00 | 0.00 | 71 | 1012.1 |
| 20260904214130 | 32 | 236 | 4.8 | 8.0 | 0.00 | 0.00 | 0.00 | 71 | 1012.4 |
| 20260904213628 | 32 | 236 | 4.8 | 4.8 | 0.00 | 0.00 | 0.00 | 72 | 1012.5 |
| 20260904213125 | 32 | 254 | 4.8 | 8.0 | 0.00 | 0.00 | 0.00 | 71 | 1012.2 |
| 20260904212620 | 31 | 244 | 1.6 | 4.8 | 0.00 | 0.00 | 0.00 | 76 | 1012.3 |
| 20260904212115 | 31 | 241 | 3.2 | 3.2 | 0.00 | 0.00 | 0.00 | 77 | 1012.5 |
| 20260904211614 | 32 | 248 | 1.6 | 3.2 | 0.00 | 0.00 | 0.00 | 76 | 1012.5 |
| 20260904211110 | 32 | 263 | 1.6 | 3.2 | 0.00 | 0.00 | 0.00 | 75 | 1012.4 |
| 20260904210609 | 32 | 277 | 1.6 | 3.2 | 0.00 | 0.00 | 0.00 | 72 | 1012.6 |
| 20260904210100 | 33 | 229 | 6.4 | 9.7 | 0.00 | 0.00 | 0.00 | 61 | 1012.4 |
| 20260904205555 | 33 | 234 | 4.8 | 12.9 | 0.00 | 0.00 | 0.00 | 60 | 1012.4 |
| 20260904205051 | 34 | 244 | 6.4 | 12.9 | 0.00 | 0.00 | 0.00 | 58 | 1012.6 |
| 20260904204547 | 35 | 216 | 6.4 | 14.5 | 0.00 | 0.00 | 0.00 | 58 | 1012.6 |
| 20260904204043 | 35 | 205 | 4.8 | 11.3 | 0.00 | 0.00 | 0.00 | 56 | 1012.5 |
| 20260904203538 | 35 | 196 | 8.0 | 14.5 | 0.00 | 0.00 | 0.00 | 56 | 1012.4 |
| 20260904203035 | 35 | 213 | 8.0 | 11.3 | 0.00 | 0.00 | 0.00 | 55 | 1012.5 |
| 20260904202530 | 35 | 182 | 8.0 | 14.5 | 0.00 | 0.00 | 0.00 | 56 | 1012.5 |
| 20260904202026 | 35 | 234 | 11.3 | 16.1 | 0.00 | 0.00 | 0.00 | 56 | 1012.7 |
| 20260904201521 | 35 | 200 | 4.8 | 9.7 | 0.00 | 0.00 | 0.00 | 56 | 1012.7 |
| 20260904201016 | 35 | 251 | 4.8 | 8.0 | 0.00 | 0.00 | 0.00 | 55 | 1012.6 |
| 20260904200514 | 35 | 278 | 4.8 | 17.7 | 0.00 | 0.00 | 0.00 | 58 | 1012.7 |
| 20260904200010 | 35 | 208 | 8.0 | 14.5 | 0.00 | 0.00 | 0.00 | 57 | 1012.9 |
| 20260904195508 | 35 | 201 | 8.0 | 12.9 | 0.00 | 0.00 | 0.00 | 57 | 1012.8 |
| 20260904195008 | 35 | 237 | 8.0 | 11.3 | 0.00 | 0.00 | 0.00 | 56 | 1012.6 |
| 20260904194503 | 35 | 214 | 12.9 | 17.7 | 0.00 | 0.00 | 0.00 | 56 | 1012.5 |
| 20260904193957 | 35 | 188 | 8.0 | 14.5 | 0.00 | 0.00 | 0.00 | 58 | 1012.6 |
| 20260904193452 | 35 | 243 | 9.7 | 14.5 | 0.00 | 0.00 | 0.00 | 56 | 1012.5 |
| 20260904192948 | 35 | 174 | 9.7 | 17.7 | 0.00 | 0.00 | 0.00 | 57 | 1012.7 |
| 20260904192443 | 34 | 202 | 8.0 | 17.7 | 0.00 | 0.00 | 0.00 | 59 | 1012.6 |
| 20260904191940 | 34 | 172 | 8.0 | 12.9 | 0.00 | 0.00 | 0.00 | 59 | 1012.7 |
| 20260904191436 | 35 | 203 | 14.5 | 17.7 | 0.00 | 0.00 | 0.00 | 57 | 1012.6 |
| 20260904190932 | 35 | 199 | 14.5 | 24.1 | 0.00 | 0.00 | 0.00 | 58 | 1012.7 |
| 20260904190426 | 35 | 217 | 12.9 | 14.5 | 0.00 | 0.00 | 0.00 | 59 | 1012.6 |
| 20260904185923 | 35 | 249 | 8.0 | 11.3 | 0.00 | 0.00 | 0.00 | 59 | 1012.8 |
| 20260904185418 | 34 | 168 | 4.8 | 16.1 | 0.00 | 0.00 | 0.00 | 60 | 1012.8 |
| 20260904184913 | 34 | 277 | 12.9 | 14.5 | 0.00 | 0.00 | 0.00 | 59 | 1012.8 |
| 20260904184408 | 33 | 191 | 12.9 | 16.1 | 0.00 | 0.00 | 0.00 | 60 | 1013.0 |
| 20260904183903 | 34 | 221 | 8.0 | 20.9 | 0.00 | 0.00 | 0.00 | 61 | 1013.0 |
| 20260904183358 | 33 | 233 | 4.8 | 12.9 | 0.00 | 0.00 | 0.00 | 62 | 1013.1 |
| 20260904182854 | 34 | 146 | 8.0 | 12.9 | 0.00 | 0.00 | 0.00 | 61 | 1013.1 |
| 20260904182348 | 33 | 244 | 8.0 | 14.5 | 0.00 | 0.00 | 0.00 | 62 | 1013.0 |
| 20260904181843 | 33 | 175 | 11.3 | 12.9 | 0.00 | 0.00 | 0.00 | 61 | 1013.1 |
| 20260904181338 | 34 | 199 | 8.0 | 12.9 | 0.00 | 0.00 | 0.00 | 60 | 1013.0 |
| 20260904180834 | 33 | 286 | 6.4 | 14.5 | 0.00 | 0.00 | 0.00 | 61 | 1013.3 |
| 20260904180329 | 33 | 214 | 16.1 | 17.7 | 0.00 | 0.00 | 0.00 | 62 | 1013.3 |
| 20260904175828 | 33 | 274 | 8.0 | 14.5 | 0.00 | 0.00 | 0.00 | 60 | 1013.1 |
| 20260904175327 | 33 | 193 | 11.3 | 14.5 | 0.00 | 0.00 | 0.00 | 62 | 1013.3 |
| 20260904174827 | 33 | 184 | 11.3 | 14.5 | 0.00 | 0.00 | 0.00 | 64 | 1013.3 |
| 20260904174323 | 33 | 211 | 6.4 | 14.5 | 0.00 | 0.00 | 0.00 | 63 | 1013.1 |
| 20260904173819 | 33 | 218 | 11.3 | 14.5 | 0.00 | 0.00 | 0.00 | 62 | 1013.2 |
| 20260904173314 | 33 | 197 | 9.7 | 14.5 | 0.00 | 0.00 | 0.00 | 64 | 1013.3 |
| 20260904172810 | 33 | 301 | 8.0 | 12.9 | 0.00 | 0.00 | 0.00 | 63 | 1013.3 |
| 20260904172309 | 32 | 214 | 11.3 | 14.5 | 0.00 | 0.00 | 0.00 | 62 | 1013.4 |
| 20260904171804 | 32 | 206 | 8.0 | 16.1 | 0.00 | 0.00 | 0.00 | 63 | 1013.6 |
| 20260904171259 | 32 | 235 | 6.4 | 14.5 | 0.00 | 0.00 | 0.00 | 64 | 1013.5 |
| 20260904170755 | 32 | 215 | 11.3 | 16.1 | 0.00 | 0.00 | 0.00 | 63 | 1013.6 |
| 20260904170251 | 32 | 205 | 11.3 | 14.5 | 0.00 | 0.00 | 0.00 | 63 | 1013.5 |
| 20260904165750 | 32 | 186 | 9.7 | 14.5 | 0.00 | 0.00 | 0.00 | 64 | 1013.5 |
| 20260904165244 | 32 | 215 | 12.9 | 17.7 | 0.00 | 0.00 | 0.00 | 64 | 1013.6 |
| 20260904164738 | 32 | 228 | 11.3 | 14.5 | 0.00 | 0.00 | 0.00 | 64 | 1013.7 |
| 20260904164234 | 32 | 221 | 11.3 | 17.7 | 0.00 | 0.00 | 0.00 | 65 | 1013.7 |
| 20260904163730 | 31 | 219 | 8.0 | 14.5 | 0.00 | 0.00 | 0.00 | 67 | 1013.6 |
| 20260904163225 | 32 | 219 | 6.4 | 12.9 | 0.00 | 0.00 | 0.00 | 66 | 1013.5 |
| 20260904162724 | 32 | 224 | 4.8 | 12.9 | 0.00 | 0.00 | 0.00 | 67 | 1013.7 |
| 20260904162219 | 31 | 180 | 4.8 | 14.5 | 0.00 | 0.00 | 0.00 | 67 | 1013.7 |
| 20260904161715 | 31 | 218 | 6.4 | 12.9 | 0.00 | 0.00 | 0.00 | 66 | 1013.6 |
| 20260904161209 | 31 | 231 | 4.8 | 16.1 | 0.00 | 0.00 | 0.00 | 67 | 1013.7 |
| 20260904160705 | 31 | 226 | 8.0 | 12.9 | 0.00 | 0.00 | 0.00 | 69 | 1013.4 |
| 20260904160201 | 31 | 218 | 11.3 | 14.5 | 0.00 | 0.00 | 0.00 | 69 | 1013.6 |
| 20260904155655 | 31 | 193 | 8.0 | 11.3 | 0.00 | 0.00 | 0.00 | 70 | 1013.4 |
| 20260904155155 | 31 | 167 | 11.3 | 17.7 | 0.00 | 0.00 | 0.00 | 69 | 1013.5 |
| 20260904154653 | 31 | 225 | 6.4 | 12.9 | 0.00 | 0.00 | 0.00 | 71 | 1013.5 |
| 20260904154153 | 31 | 196 | 9.7 | 16.1 | 0.00 | 0.00 | 0.00 | 69 | 1013.4 |
| 20260904153648 | 31 | 207 | 8.0 | 16.1 | 0.00 | 0.00 | 0.00 | 69 | 1013.4 |
| 20260904153144 | 31 | 172 | 11.3 | 12.9 | 0.00 | 0.00 | 0.00 | 70 | 1013.3 |
| 20260904152640 | 30 | 208 | 6.4 | 11.3 | 0.00 | 0.00 | 0.00 | 70 | 1013.4 |
| 20260904152136 | 30 | 203 | 9.7 | 11.3 | 0.00 | 0.00 | 0.00 | 71 | 1013.2 |
| 20260904151630 | 30 | 215 | 9.7 | 16.1 | 0.00 | 0.00 | 0.00 | 72 | 1013.3 |
| 20260904151129 | 30 | 209 | 4.8 | 9.7 | 0.00 | 0.00 | 0.00 | 72 | 1013.4 |
| 20260904150625 | 30 | 122 | 9.7 | 16.1 | 0.00 | 0.00 | 0.00 | 72 | 1013.4 |
| 20260904150120 | 30 | 226 | 9.7 | 12.9 | 0.00 | 0.00 | 0.00 | 73 | 1013.4 |
| 20260904145618 | 29 | 172 | 11.3 | 17.7 | 0.00 | 0.00 | 0.00 | 75 | 1013.4 |
| 20260904145114 | 28 | 190 | 6.4 | 14.5 | 0.00 | 0.00 | 0.00 | 77 | 1013.3 |
| 20260904144609 | 28 | 192 | 8.0 | 12.9 | 0.00 | 0.00 | 0.00 | 76 | 1013.5 |
| 20260904144105 | 28 | 163 | 9.7 | 11.3 | 0.00 | 0.00 | 0.00 | 77 | 1013.5 |
| 20260904143601 | 28 | 227 | 8.0 | 11.3 | 0.00 | 0.00 | 0.00 | 76 | 1013.3 |
| 20260904143057 | 28 | 184 | 9.7 | 12.9 | 0.00 | 0.00 | 0.00 | 77 | 1013.3 |
| 20260904142554 | 27 | 222 | 8.0 | 12.9 | 0.00 | 0.00 | 0.00 | 79 | 1013.4 |
| 20260904142053 | 27 | 227 | 6.4 | 12.9 | 0.00 | 0.00 | 0.00 | 80 | 1013.3 |
| 20260904141549 | 27 | 229 | 9.7 | 12.9 | 0.00 | 0.00 | 0.00 | 81 | 1013.4 |
| 20260904141044 | 27 | 217 | 8.0 | 11.3 | 0.00 | 0.00 | 0.00 | 81 | 1013.4 |
| 20260904140540 | 27 | 195 | 6.4 | 9.7 | 0.00 | 0.00 | 0.00 | 81 | 1013.3 |
| 20260904140039 | 27 | 184 | 11.3 | 12.9 | 0.00 | 0.00 | 0.00 | 81 | 1013.4 |
| 20260904135539 | 26 | 195 | 8.0 | 11.3 | 0.00 | 0.00 | 0.00 | 82 | 1013.4 |
| 20260904135035 | 26 | 188 | 8.0 | 9.7 | 0.00 | 0.00 | 0.00 | 82 | 1013.4 |
| 20260904134530 | 26 | 230 | 6.4 | 9.7 | 0.00 | 0.00 | 0.00 | 82 | 1013.3 |
| 20260904134025 | 26 | 256 | 6.4 | 9.7 | 0.00 | 0.00 | 0.00 | 84 | 1013.3 |
| 20260904133520 | 26 | 279 | 3.2 | 4.8 | 0.00 | 0.00 | 0.00 | 84 | 1013.4 |
| 20260904133016 | 26 | 260 | 1.6 | 4.8 | 0.00 | 0.00 | 0.00 | 84 | 1013.1 |
| 20260904132515 | 25 | 160 | 8.0 | 9.7 | 0.00 | 0.00 | 0.00 | 84 | 1013.3 |
| 20260904132010 | 25 | 242 | 4.8 | 4.8 | 0.00 | 0.00 | 0.00 | 85 | 1013.0 |
| 20260904131505 | 25 | 269 | 3.2 | 4.8 | 0.00 | 0.00 | 0.00 | 85 | 1013.0 |
| 20260904131001 | 25 | 272 | 1.6 | 3.2 | 0.00 | 0.00 | 0.00 | 86 | 1013.3 |
| 20260904130459 | 25 | 260 | 1.6 | 3.2 | 0.00 | 0.00 | 0.00 | 86 | 1013.1 |
| 20260904125954 | 25 | 187 | 3.2 | 3.2 | 0.00 | 0.00 | 0.00 | 86 | 1013.0 |
| 20260904125451 | 25 | 252 | 1.6 | 3.2 | 0.00 | 0.00 | 0.00 | 87 | 1013.2 |
| 20260904124950 | 25 | 237 | 3.2 | 4.8 | 0.00 | 0.00 | 0.00 | 87 | 1013.0 |
| 20260904124446 | 25 | 221 | 3.2 | 3.2 | 0.00 | 0.00 | 0.00 | 87 | 1013.1 |
| 20260904123942 | 25 | 234 | 3.2 | 4.8 | 0.00 | 0.00 | 0.00 | 87 | 1012.8 |
| 20260904123436 | 25 | 242 | 3.2 | 3.2 | 0.00 | 0.00 | 0.00 | 87 | 1013.0 |
| 20260904122931 | 24 | 257 | 1.6 | 3.2 | 0.00 | 0.00 | 0.00 | 87 | 1012.7 |
| 20260904122426 | 24 | 274 | 1.6 | 3.2 | 0.00 | 0.00 | 0.00 | 87 | 1012.7 |
| 20260904121920 | 23 | 278 | 1.6 | 1.6 | 0.00 | 0.00 | 0.00 | 88 | 1012.9 |
| 20260904121417 | 23 | 255 | 3.2 | 3.2 | 0.00 | 0.00 | 0.00 | 88 | 1012.9 |
| 20260904120913 | 23 | 267 | 3.2 | 3.2 | 0.00 | 0.00 | 0.00 | 89 | 1012.8 |
| 20260904120409 | 23 | 264 | 1.6 | 3.2 | 0.00 | 0.00 | 0.00 | 89 | 1012.8 |
| 20260904115904 | 23 | 270 | 0.0 | 1.6 | 0.00 | 0.00 | 0.00 | 90 | 1012.9 |
| 20260904115359 | 23 | 265 | 1.6 | 3.2 | 0.00 | 0.00 | 0.00 | 90 | 1012.7 |
| 20260904114853 | 23 | 238 | 3.2 | 3.2 | 0.00 | 0.00 | 0.00 | 90 | 1012.8 |
| 20260904114348 | 23 | 244 | 3.2 | 3.2 | 0.00 | 0.00 | 0.00 | 89 | 1012.5 |
| 20260904113843 | 23 | 247 | 3.2 | 3.2 | 0.00 | 0.00 | 0.00 | 89 | 1012.5 |
| 20260904113342 | 23 | 228 | 4.8 | 4.8 | 0.00 | 0.00 | 0.00 | 90 | 1012.4 |
| 20260904112837 | 23 | 235 | 3.2 | 3.2 | 0.00 | 0.00 | 0.00 | 89 | 1012.5 |
| 20260904112333 | 23 | 235 | 3.2 | 4.8 | 0.00 | 0.00 | 0.00 | 89 | 1012.4 |
| 20260904111828 | 23 | 230 | 3.2 | 4.8 | 0.00 | 0.00 | 0.00 | 89 | 1012.5 |
| 20260904111324 | 23 | 256 | 1.6 | 4.8 | 0.00 | 0.00 | 0.00 | 89 | 1012.3 |
| 20260904110820 | 23 | 250 | 1.6 | 4.8 | 0.00 | 0.00 | 0.00 | 89 | 1012.2 |
| 20260904110319 | 23 | 257 | 1.6 | 3.2 | 0.00 | 0.00 | 0.00 | 89 | 1012.2 |
| 20260904105813 | 23 | 248 | 1.6 | 4.8 | 0.00 | 0.00 | 0.00 | 89 | 1012.2 |
| 20260904105308 | 23 | 244 | 3.2 | 4.8 | 0.00 | 0.00 | 0.00 | 89 | 1012.2 |
| 20260904104803 | 23 | 237 | 3.2 | 4.8 | 0.00 | 0.00 | 0.00 | 89 | 1012.3 |
| 20260904104259 | 23 | 242 | 3.2 | 4.8 | 0.00 | 0.00 | 0.00 | 89 | 1012.1 |
| 20260904103756 | 23 | 226 | 3.2 | 4.8 | 0.00 | 0.00 | 0.00 | 89 | 1012.1 |
| 20260904103255 | 23 | 234 | 3.2 | 4.8 | 0.00 | 0.00 | 0.00 | 89 | 1012.1 |
| 20260904102751 | 23 | 244 | 1.6 | 3.2 | 0.00 | 0.00 | 0.00 | 89 | 1012.1 |
| 20260904102246 | 23 | 245 | 1.6 | 3.2 | 0.00 | 0.00 | 0.00 | 89 | 1012.2 |
| 20260904101742 | 23 | 246 | 1.6 | 1.6 | 0.00 | 0.00 | 0.00 | 90 | 1012.0 |
| 20260904101238 | 23 | 246 | 0.0 | 0.0 | 0.00 | 0.00 | 0.00 | 90 | 1012.0 |
| 20260904100734 | 23 | 246 | 0.0 | 1.6 | 0.00 | 0.00 | 0.00 | 89 | 1012.0 |
| 20260904100230 | 23 | 245 | 1.6 | 3.2 | 0.00 | 0.00 | 0.00 | 89 | 1012.1 |
| 20260904095729 | 23 | 245 | 1.6 | 3.2 | 0.00 | 0.00 | 0.00 | 89 | 1012.0 |
| 20260904095224 | 23 | 245 | 3.2 | 3.2 | 0.00 | 0.00 | 0.00 | 89 | 1011.9 |
| 20260904094719 | 23 | 246 | 3.2 | 3.2 | 0.00 | 0.00 | 0.00 | 88 | 1012.0 |
| 20260904094219 | 23 | 249 | 1.6 | 3.2 | 0.00 | 0.00 | 0.00 | 88 | 1011.9 |
| 20260904093716 | 23 | 237 | 3.2 | 3.2 | 0.00 | 0.00 | 0.00 | 88 | 1011.8 |
| 20260904093215 | 23 | 228 | 4.8 | 4.8 | 0.00 | 0.00 | 0.00 | 88 | 1011.8 |
| 20260904092711 | 23 | 231 | 4.8 | 8.0 | 0.00 | 0.00 | 0.00 | 88 | 1011.7 |
| 20260904092207 | 23 | 234 | 3.2 | 4.8 | 0.00 | 0.00 | 0.00 | 88 | 1011.7 |
| 20260904091703 | 23 | 243 | 3.2 | 4.8 | 0.00 | 0.00 | 0.00 | 88 | 1011.7 |
| 20260904091158 | 23 | 230 | 4.8 | 4.8 | 0.00 | 0.00 | 0.00 | 88 | 1011.6 |
| 20260904090653 | 24 | 235 | 3.2 | 3.2 | 0.00 | 0.00 | 0.00 | 87 | 1011.4 |
| 20260904090149 | 24 | 227 | 3.2 | 3.2 | 0.00 | 0.00 | 0.00 | 87 | 1011.5 |
| 20260904085644 | 24 | 222 | 1.6 | 4.8 | 0.00 | 0.00 | 0.00 | 87 | 1011.5 |
| 20260904085143 | 23 | 207 | 3.2 | 4.8 | 0.00 | 0.00 | 0.00 | 87 | 1011.5 |
| 20260904084638 | 23 | 245 | 3.2 | 4.8 | 0.00 | 0.00 | 0.00 | 88 | 1011.4 |
| 20260904084135 | 23 | 213 | 3.2 | 4.8 | 0.00 | 0.00 | 0.00 | 88 | 1011.4 |
| 20260904083631 | 24 | 207 | 3.2 | 3.2 | 0.00 | 0.00 | 0.00 | 88 | 1011.6 |
| 20260904083127 | 24 | 227 | 3.2 | 3.2 | 0.00 | 0.00 | 0.00 | 87 | 1011.5 |
| 20260904082621 | 24 | 224 | 3.2 | 3.2 | 0.00 | 0.00 | 0.00 | 87 | 1011.6 |
| 20260904082117 | 24 | 219 | 3.2 | 4.8 | 0.00 | 0.00 | 0.00 | 87 | 1011.5 |